Погода в Чиппинге-Кэмпдене

Великобритания     52°03′14″N   1°46′31″W
темп.,
°C
ветер,
м/с
пор.,
м/с
влажн.,
%
обл.,
%
осадки,
мм/ч
давл.,
гПа
погр.,
м
21 апреля, ср
ср2101:00+6ссв119294 0.1 101911
04:00+6ссв239494 0.0 101941
07:00+5св399829 0.0 1020251
10:00+10всв787964 0.0 1022904
13:00+10всв7872100 0.1 10231105
16:00+10всв5772100 0.0 10231221
19:00+8всв5870100 0.0 1023664
22:00+3всв511795 0.0 1026304
22 апреля, чт
чт2201:000в38945 0.0 1027150
04:00−1всв24945 0.0 102775
07:000всв26895 0.0 1028173
10:00+7всв456137 0.0 1029618
13:00+11в45500 0.0 1028992
16:00+12в55530 0.0 10281136
19:00+10в36744 0.0 1028175
22:00+4в34891 0.0 103068
23 апреля, пт
пт2301:00+2юв22914 0.0 103018
04:00+1вюв22890 0.0 103010
07:00+1в22820 0.0 103148
10:00+9в57600 0.0 1031506
13:00+12вюв57520 0.0 1030960
16:00+13вюв56510 0.0 10291111
19:00+10вюв487161 0.0 1029274
22:00+4вюв397231 0.0 1030127
24 апреля, сб
сб2401:00+2вюв3971100 0.0 1030132
04:00+1в3979100 0.0 1030148
07:00+3в31180100 0.0 1030252
10:00+9в5968100 0.0 1029546
13:00+12в7862100 0.0 10291114
16:00+13в786399 0.0 10281319
19:00+11в597699 0.0 1028734
22:00+5в3993100 0.0 1029175
25 апреля, вс
вс2501:00+3в31193100 0.0 1029245
04:00+2всв399761 0.0 1029212
07:00+2всв4119410 0.0 1028313
10:00+8всв79620 0.0 1028689
13:00+11всв78550 0.0 10261045
16:00+12всв78555 0.0 10241204
19:00+10всв59695 0.0 1024616
22:00+3всв412880 0.0 1024265